Theta_e
326 335 338 338 340 335 336 342 339 341 340 345 343 344 345 345 347 353 345 345 344 345 349 345 333 335 333 331 331 332 333 333 333 334 334 335 335 335 335 335 335 335 336 338 339 339 336 335 337
335 335 337 338 337 334 339 339 338 342 343 345 344 344 347 352 344 339 339 345 342 346 348 345 333 334 334 332 332 333 334 334 335 335 335 335 335 336 336 337 338 338 338 338 338 337 337 336 335
334 333 338 337 336 339 337 338 340 343 343 344 344 344 345 349 341 339 337 344 344 345 345 349 333 334 333 333 333 334 334 336 336 336 336 337 337 337 336 336 338 340 341 342 341 340 340 339 339
331 334 337 337 337 339 338 339 340 341 342 342 342 344 345 345 342 344 340 341 341 341 343 343 333 333 332 333 333 334 335 335 335 336 338 340 341 341 341 341 338 340 339 340 340 338 338 337 338
329 332 336 338 338 340 342 341 340 340 341 342 340 343 347 346 345 345 344 340 339 340 341 343 332 332 332 333 333 334 335 335 336 339 340 340 340 341 341 341 341 337 333 336 336 335 332 331 334
332 332 335 336 336 340 344 344 341 340 341 342 340 342 346 345 346 346 343 340 339 340 340 345 335 332 332 332 333 334 334 336 339 339 338 336 332 333 331 334 335 330 327 331 335 331 328 328 328
331 334 334 334 336 337 344 346 345 339 340 339 339 341 347 345 346 345 342 340 341 340 340 341 340 340 331 332 332 333 334 337 337 335 334 331 327 326 324 325 324 323 322 322 328 326 326 326 324
329 332 334 334 334 334 344 347 346 342 339 340 338 339 344 344 342 343 341 340 340 338 338 339 341 340 341 341 332 333 336 336 336 332 330 329 328 326 325 327 327 323 323 322 323 322 321 322 320
328 332 331 333 334 333 342 345 346 344 342 338 338 339 340 344 342 341 340 340 340 339 340 339 340 340 341 341 342 336 337 337 335 335 330 332 332 332 331 328 324 324 324 324 324 322 321 321 321
329 330 330 331 333 333 338 342 346 345 342 338 339 338 342 345 343 343 342 340 339 340 342 341 341 342 341 340 342 343 343 342 342 339 339 332 333 332 329 329 328 327 326 324 323 322 322 323 323
327 329 328 329 330 333 337 340 344 344 341 339 338 337 342 344 344 342 340 340 342 342 343 343 342 343 341 341 344 343 342 342 344 342 337 334 332 331 330 331 330 330 329 327 326 325 324 323 322
326 327 328 328 331 332 338 340 343 343 340 338 338 338 339 345 344 344 344 343 343 345 345 344 342 343 344 345 344 345 344 343 342 336 335 335 331 331 331 331 331 328 326 326 326 326 325 327 327
326 327 326 328 334 333 337 340 341 341 340 341 338 341 338 343 344 345 348 348 347 346 345 346 345 345 346 347 347 348 344 342 338 334 334 331 331 332 331 331 326 321 320 320 321 322 324 326 326
326 326 326 330 334 334 338 339 342 338 340 341 343 343 341 340 344 347 348 348 349 349 349 349 349 348 345 343 343 341 338 335 333 333 331 331 331 329 324 320 319 318 318 317 318 319 321 323 323
326 326 326 328 333 335 338 341 342 338 341 343 345 345 342 340 343 346 347 347 345 347 349 348 347 343 338 337 336 334 333 332 331 331 331 328 325 323 322 319 318 318 318 318 318 318 318 319 321
328 328 328 328 331 333 337 334 334 336 340 343 344 344 343 343 343 345 346 343 344 344 346 342 336 336 336 335 334 333 332 331 332 329 328 326 323 321 320 319 318 319 318 317 317 317 318 318 319
329 329 330 330 329 332 334 332 331 334 336 341 344 345 345 345 345 345 343 340 340 344 344 341 339 336 336 336 334 334 332 331 332 331 329 325 321 321 321 319 319 320 317 316 316 316 317 318 318
328 329 329 329 329 330 332 332 330 334 340 342 345 346 346 345 345 344 342 339 339 341 343 342 341 338 336 336 335 332 332 334 334 333 327 324 321 321 321 319 319 319 317 316 316 316 316 318 318
328 328 329 329 328 329 330 330 334 337 339 344 345 345 346 347 344 344 342 339 338 338 339 340 339 339 337 336 334 334 336 336 336 330 325 323 321 320 322 320 318 318 316 315 315 315 315 317 318
328 328 329 329 330 330 332 331 335 338 340 342 344 345 346 347 346 344 342 340 339 339 339 339 339 339 339 337 337 338 336 334 330 325 325 324 323 322 321 319 318 317 316 314 314 314 314 314 316
329 330 330 330 330 330 330 332 333 335 340 341 342 342 343 343 343 344 344 342 341 340 339 339 339 339 339 338 338 336 335 330 327 326 323 322 323 321 319 319 317 316 315 313 314 314 313 314 314
329 329 329 329 330 330 329 331 334 334 335 335 337 336 335 334 337 340 341 342 342 341 339 338 339 339 339 339 336 336 333 329 327 325 322 323 321 320 318 317 315 313 312 312 313 312 311 312 312
331 329 328 328 329 331 330 330 337 334 335 333 333 332 332 332 334 336 338 339 339 338 338 338 340 340 338 336 335 332 329 326 323 321 322 320 318 317 316 313 312 313 313 312 311 311 311 311 311
328 330 328 329 329 332 329 329 334 334 335 334 332 331 332 332 333 333 338 339 339 338 338 338 340 340 338 335 332 330 328 324 322 322 320 317 316 314 312 311 312 313 313 312 312 312 312 312 312
330 330 329 328 327 328 328 330 332 330 332 331 330 331 331 331 332 332 332 332 336 336 337 337 338 338 336 330 328 326 324 324 322 320 318 317 314 312 311 312 313 312 312 312 312 312 312 311 312
331 332 330 330 328 326 328 330 332 328 329 330 330 330 330 333 331 331 332 333 333 336 337 336 335 334 330 327 325 324 324 321 319 318 318 316 314 312 312 312 312 312 311 312 312 312 311 310 311
333 332 331 334 332 331 329 330 329 328 328 329 328 329 330 333 332 333 332 335 335 334 334 334 332 330 327 324 324 323 322 321 319 318 317 314 312 312 312 313 312 310 310 311 311 310 310 310 310
333 331 333 332 332 332 330 329 329 328 328 328 329 329 330 333 332 332 332 334 335 332 332 330 327 325 324 323 322 321 320 319 318 317 315 313 312 312 313 313 311 310 309 310 310 310 310 310 310
332 333 333 333 333 331 331 330 327 329 329 330 331 331 330 330 330 330 330 332 332 329 325 325 325 323 322 322 321 320 318 318 317 315 313 312 312 312 312 312 310 309 309 311 310 310 310 310 310
330 332 332 334 332 330 332 330 328 328 329 331 331 330 330 330 329 327 327 328 327 327 325 324 324 322 320 320 320 317 319 317 316 313 312 312 312 312 312 310 309 309 311 310 310 310 310 310 310
Wind_Speed
6 6 4 8 3 9 15 12 5 10 5 7 3 2 8 5 7 4 10 10 12 16 15 14 14 12 11 10 10 9 9 9 8 8 7 7 7 6 6 6 7 6 6 6 6 6 6 6 7
6 4 6 5 5 12 11 7 11 8 6 5 3 2 4 9 7 13 13 11 16 17 15 13 14 12 10 9 9 8 8 7 7 6 6 5 6 6 6 6 6 6 5 6 6 6 7 7 7
6 5 5 2 9 11 12 10 9 10 6 5 2 2 3 7 7 7 13 16 16 16 15 14 14 12 10 8 8 7 6 5 5 5 4 5 5 5 6 6 5 6 6 7 7 7 8 9 9
3 7 5 5 12 10 9 9 8 7 7 3 3 6 7 5 8 7 15 15 15 15 14 14 14 12 10 8 7 6 5 4 4 4 4 5 5 5 6 6 6 6 8 8 9 9 9 10 10
6 4 3 7 11 6 2 7 5 6 5 5 2 4 6 8 8 12 14 15 13 13 13 12 13 11 9 7 6 5 3 3 3 4 4 5 5 5 6 6 7 8 9 8 9 10 11 10 10
3 3 2 7 9 4 2 3 3 4 4 5 2 5 7 10 10 12 12 12 11 12 12 11 12 11 9 7 5 4 3 2 2 3 4 5 6 7 9 8 9 10 11 10 9 8 8 9 11
5 5 7 5 8 5 4 4 4 4 4 2 2 4 6 9 10 11 11 11 10 10 10 9 9 9 8 7 6 4 3 2 2 3 3 4 6 8 9 9 8 9 12 11 8 8 8 9 9
7 4 3 1 4 10 8 8 1 3 4 3 4 3 7 10 12 12 11 10 10 9 9 9 8 7 7 5 5 5 3 2 1 2 3 3 4 7 7 7 8 7 8 9 5 6 9 10 10
5 6 6 5 4 8 9 9 5 3 5 8 8 1 5 16 14 12 10 10 10 9 8 7 7 7 5 4 5 4 3 2 0 2 3 2 3 5 7 8 7 10 10 8 9 9 11 12 16
8 5 4 4 1 1 7 10 11 7 7 9 9 6 5 15 15 12 11 10 9 10 8 7 6 6 6 5 5 5 5 4 3 3 3 4 5 7 10 10 13 14 14 13 13 15 13 16 15
1 4 4 1 4 5 4 9 8 10 8 8 11 10 13 14 14 12 11 9 8 7 7 7 7 6 7 6 5 5 6 6 5 4 4 5 7 9 11 12 14 16 16 16 17 19 20 21 21
8 1 3 3 2 6 8 7 10 12 1 5 8 8 15 14 13 11 9 9 7 6 7 6 7 7 7 7 7 7 8 6 6 5 4 6 8 9 9 12 15 17 20 20 20 21 22 22 21
7 1 1 2 3 7 6 10 10 9 9 3 6 8 13 12 11 9 7 5 5 7 8 7 8 9 8 9 9 9 9 7 6 5 5 6 7 7 9 12 17 19 20 21 21 22 22 22 23
0 2 2 1 3 3 8 7 6 4 9 9 7 9 12 12 11 9 8 7 7 7 7 7 8 9 8 7 6 6 5 6 5 5 4 4 5 7 11 16 17 17 17 19 20 22 22 22 23
4 8 6 4 3 2 6 8 12 13 3 10 7 8 11 11 9 9 5 5 5 7 7 6 6 6 6 7 6 5 5 5 4 4 2 2 5 8 12 14 15 15 16 17 19 20 21 22 22
6 7 10 7 5 2 8 9 5 7 7 11 7 8 10 11 9 7 7 4 4 6 7 6 6 6 7 7 6 6 5 4 4 2 3 4 6 8 12 16 15 14 16 18 19 20 21 21 22
6 7 6 6 0 4 9 10 8 6 10 10 6 8 9 11 7 8 7 4 3 6 7 8 8 8 7 6 5 5 6 3 3 3 6 5 8 9 12 16 15 15 19 19 20 19 19 21 21
6 3 5 5 3 4 7 12 4 5 6 7 4 6 7 9 10 9 7 4 2 3 7 9 9 8 7 6 5 5 5 5 6 7 7 7 10 11 12 17 14 15 19 20 19 21 21 20 20
3 3 2 4 3 4 3 6 5 6 3 3 5 6 6 7 8 9 9 5 4 4 5 7 7 7 7 7 8 9 9 9 9 8 8 9 11 12 13 16 16 17 18 19 19 19 22 20 18
1 3 5 2 3 8 3 6 3 6 4 1 1 4 4 7 7 10 11 8 5 4 4 6 8 9 9 9 8 7 8 10 9 8 8 10 11 13 15 15 17 18 21 21 18 12 19 19 18
4 9 8 9 2 2 6 10 1 4 4 4 3 2 3 4 6 7 9 11 10 8 6 6 6 8 9 8 8 7 8 7 9 9 13 11 14 14 15 16 18 20 21 21 18 18 18 21 19
2 6 7 8 9 5 2 3 7 3 6 6 9 8 7 6 5 2 3 4 7 8 5 4 4 6 7 6 6 7 9 10 11 12 14 15 15 15 17 19 21 22 21 20 15 16 16 17 18
7 5 6 5 4 8 9 8 8 2 5 6 6 6 5 5 2 1 1 0 1 2 3 2 3 5 5 4 4 7 8 12 13 14 15 18 16 18 20 21 21 17 15 15 15 16 15 17 18
3 5 3 4 3 5 7 7 10 4 2 4 4 7 5 5 2 1 1 1 1 1 1 2 2 2 3 4 4 5 7 10 14 16 18 19 20 20 19 19 17 17 19 18 17 17 16 18 16
4 10 2 3 3 4 6 7 8 4 1 6 6 7 7 4 4 3 2 2 1 1 1 1 0 2 3 3 4 5 7 9 13 15 17 19 22 21 20 17 18 19 20 19 19 17 18 21 18
5 8 7 8 7 9 4 4 6 3 4 7 10 10 9 3 4 2 0 1 2 1 0 1 2 3 4 5 4 5 7 12 14 15 18 19 21 19 18 19 19 21 20 19 17 16 18 19 13
4 3 3 5 5 6 4 2 11 1 6 9 11 11 9 5 4 3 2 2 3 2 2 4 4 4 5 4 5 6 8 11 14 15 17 19 19 19 19 18 19 20 19 17 15 17 17 15 12
5 4 4 3 6 9 8 5 4 11 9 10 9 9 7 8 4 3 3 3 4 3 3 4 5 6 4 4 6 6 8 13 15 16 19 18 17 18 19 18 19 17 17 16 14 16 14 12 11
5 5 1 4 3 8 7 10 10 9 12 13 13 13 5 4 3 3 2 3 5 4 7 7 8 5 5 6 8 9 11 12 15 18 18 16 16 17 19 18 17 17 17 15 14 14 13 11 10
2 3 2 5 8 4 6 7 4 11 13 11 12 7 3 4 3 3 4 3 4 6 8 8 7 7 6 7 5 6 10 14 17 17 16 15 16 17 19 17 17 16 15 13 12 13 11 12 10
Wind_Direction
150 158 217 248 199 77 62 72 79 76 116 64 92 314 28 27 4 49 133 159 167 156 156 157 159 153 149 140 129 119 115 109 104 96 89 81 76 69 59 51 42 33 27 24 18 8 2 356 351
172 182 241 274 51 77 63 56 73 66 62 89 96 250 39 67 49 110 133 139 148 153 155 157 163 158 152 143 131 125 120 111 103 93 82 72 59 50 43 36 33 29 19 11 9 359 347 341 332
185 247 277 52 49 52 73 62 65 79 102 125 138 24 36 82 102 115 118 145 148 154 155 163 164 161 159 149 143 135 121 111 93 75 67 62 56 53 41 28 19 14 5 359 353 351 345 338 328
246 203 221 53 75 70 47 80 81 109 92 89 69 84 114 61 134 122 142 149 151 155 153 171 163 164 162 159 152 141 132 115 106 95 69 49 35 33 35 31 16 9 358 354 350 348 348 340 332
249 249 158 81 87 85 65 74 108 96 91 104 23 97 88 88 104 129 143 154 157 154 156 163 165 166 164 165 161 150 137 120 98 79 52 30 23 24 22 23 19 14 4 0 359 355 355 360 351
246 271 211 95 95 99 127 117 115 72 90 98 194 117 81 116 137 136 147 156 157 157 159 166 173 170 171 174 172 164 149 115 77 50 38 42 48 51 44 35 28 11 5 359 356 1 7 5 1
318 291 47 65 89 157 136 174 181 97 126 107 349 150 105 157 143 147 150 155 158 162 167 168 176 180 180 182 181 176 149 122 72 45 45 58 58 57 46 39 27 9 2 350 349 348 342 343 347
289 269 178 85 122 94 149 174 179 179 115 106 203 106 138 153 153 152 152 158 166 169 175 177 179 184 192 203 205 181 170 144 78 32 51 89 33 23 14 17 345 339 339 331 310 327 326 318 314
271 246 130 113 183 103 142 191 144 124 166 198 184 334 52 147 157 152 154 160 172 170 175 181 186 188 199 196 221 205 197 191 290 354 344 346 318 344 343 322 315 320 310 296 286 298 305 305 292
262 286 82 25 44 234 165 202 155 186 193 199 205 193 157 157 169 164 172 173 173 169 180 187 194 199 199 204 209 215 219 231 240 270 276 298 312 313 321 311 311 315 309 290 282 282 288 292 293
198 285 51 298 277 276 207 207 177 212 196 219 209 180 163 172 182 177 183 174 181 165 181 195 200 203 209 215 221 231 233 239 244 248 264 289 300 310 312 312 318 318 315 306 304 298 289 292 296
265 312 287 20 294 222 216 209 204 220 259 313 197 168 175 181 183 192 198 171 177 185 197 202 211 210 216 226 235 250 253 251 249 251 267 288 301 307 314 323 327 322 320 314 305 299 294 287 281
233 32 346 221 210 214 204 223 230 216 220 142 199 187 190 178 180 184 194 207 200 215 206 216 215 219 231 245 246 251 249 244 240 257 271 293 308 319 327 333 331 323 319 313 310 303 297 290 284
344 280 113 190 167 210 230 212 227 232 213 214 237 201 188 182 171 171 191 200 216 231 225 223 223 218 228 235 223 208 209 222 243 267 280 330 336 336 341 337 328 322 320 316 311 305 300 292 289
186 213 182 61 163 133 244 205 235 252 182 230 215 203 182 185 178 198 192 201 214 213 206 199 202 208 191 188 183 193 218 243 260 279 272 272 6 349 349 331 323 322 319 314 311 306 299 292 289
211 214 209 73 184 125 218 258 157 256 245 245 205 194 187 185 194 183 196 205 193 186 189 180 191 191 191 196 198 217 232 237 243 248 293 317 342 334 335 324 321 317 318 313 311 309 306 301 295
178 66 75 111 325 170 226 270 55 338 263 250 226 200 192 170 177 188 193 186 179 192 193 196 193 199 202 209 227 233 234 238 254 287 280 292 314 315 323 322 316 317 317 317 316 315 311 304 296
30 117 106 51 73 240 220 258 354 358 304 244 226 205 205 196 196 195 196 188 153 187 203 210 208 207 210 224 234 249 257 265 271 285 274 297 305 307 308 317 311 314 316 317 319 314 311 300 293
46 29 28 102 77 264 308 285 330 347 287 190 213 206 199 210 199 196 205 189 204 213 214 217 223 220 221 238 255 261 276 279 292 283 280 286 296 301 297 305 311 310 308 312 308 313 315 306 300
305 306 39 165 41 281 291 275 324 20 42 328 208 177 192 200 202 216 215 218 240 255 238 229 235 232 232 248 267 282 289 300 294 289 286 288 289 294 297 306 309 312 312 311 306 308 308 305 299
49 351 342 328 335 214 288 236 179 58 91 131 178 179 182 200 221 216 219 221 235 243 248 238 238 236 241 253 264 282 296 280 271 278 298 300 298 303 308 313 315 313 309 305 313 302 302 297 295
329 4 314 300 275 336 345 347 126 61 106 109 135 142 152 176 187 179 233 238 232 248 241 255 240 230 234 237 253 274 293 298 309 301 311 313 312 312 317 317 316 311 307 308 305 306 302 293 288
47 353 341 308 258 224 53 276 106 163 156 131 139 155 179 190 106 210 179 294 284 228 237 214 208 203 206 230 268 281 294 307 313 313 312 312 311 314 316 318 317 317 315 309 306 301 298 289 287
132 272 229 217 218 215 36 312 94 81 348 162 186 212 214 221 179 241 9 298 274 268 256 188 193 209 235 258 271 285 300 317 320 322 318 319 317 316 316 317 313 315 310 303 295 292 290 290 286
307 344 300 293 333 5 20 269 48 23 225 284 273 237 229 186 233 212 205 240 263 273 314 349 321 278 261 259 271 296 318 319 313 319 320 321 318 318 316 314 310 310 308 299 289 285 289 284 278
40 335 16 337 349 340 115 11 76 28 293 276 268 268 275 235 258 212 184 261 274 195 176 259 271 257 247 265 303 317 316 318 318 323 319 315 315 314 313 308 305 310 304 294 289 289 288 287 279
101 19 12 309 190 271 35 49 230 225 283 256 261 261 254 245 247 213 177 237 257 262 294 291 267 256 261 292 308 312 322 326 324 318 313 312 310 312 308 306 308 307 302 300 300 295 288 291 286
340 106 303 295 336 326 344 302 312 345 335 330 283 274 264 246 236 196 219 237 251 255 265 259 259 260 266 282 295 321 333 317 317 315 314 312 311 308 307 307 308 303 304 300 296 293 298 291 293
173 185 43 278 331 322 318 327 36 356 338 324 319 328 295 242 265 218 250 238 239 255 270 253 255 257 271 296 324 324 325 319 318 317 313 308 309 311 314 311 306 304 301 299 300 303 307 301 299
318 14 329 332 340 324 282 305 46 345 329 332 331 336 62 6 12 323 288 260 251 283 286 279 277 281 283 285 255 304 317 319 318 317 312 309 309 310 316 310 307 302 299 307 310 305 310 306 304